Weather History for Anaktuvuk Pass, AK

Change the Weather History Date:

Tuesday, February 5, 2013

  Actual Average Record
Temperature  
Mean Temperature -20 °F -  
Max Temperature -18 °F 0 °F 21 °F (1997)
Min Temperature -23 °F -12 °F -31 °F (2008)
Degree Days  
Heating Degree Days 86    
Moisture  
Dew Point -29 °F    
Average Humidity 59    
Maximum Humidity 69    
Minimum Humidity 58    
Precipitation  
Precipitation 0.00 in - - ()
Sea Level Pressure  
Sea Level Pressure 29.74 in    
Wind  
Wind Speed 17 mph (NE)    
Max Wind Speed 21 mph    
Max Gust Speed 26 mph    
Visibility 3 miles    
Events      
Averages and records for this station are not official NWS values.
T = Trace of Precipitation, MM = Missing Value Source: NWS Daily Summary

Daily Weather History Graph

Daily Weather History Graph

Search for Another Location

Airport:

Trip Planner

Search our weather history database for the weather conditions in past years. The results will help you decide how hot, cold, wet, or windy it might be!

Date:

Astronomy

Feb. 05, 2013 Rise Set
Actual Time 10:06 AM AKST 4:37 PM AKST
Civil Twilight 8:57 AM AKST 5:45 PM AKST
Nautical Twilight 7:48 AM AKST 6:54 PM AKST
Astronomical Twilight 6:44 AM AKST 7:59 PM AKST
Moon 7:40 AM AKST (2/5) 10:21 AM AKST (2/5)
Length of Visible Light 8h 48m
Length of Day
6h 31m
Waning Crescent, 25% of the Moon is Illuminated
Feb 5
Waning Crescent
Feb 9
New
Feb 17
First Quarter
Feb 25
Full
Mar 4
Last Quarter

Hourly Weather History & Observations

Time (AKST) Temp. Windchill Dew Point Humidity Pressure Visibility Wind Dir Wind Speed Gust Speed Precip Events Conditions
12:16 AM -18.4 °F -43.7 °F -29.2 °F 58% 29.75 in 1.2 mi NE 16.1 mph - N/A   Overcast
12:36 AM -18.4 °F -42.9 °F -29.2 °F 58% 29.75 in 1.8 mi NE 15.0 mph 21.9 mph N/A   Overcast
12:56 AM -18.4 °F -44.5 °F -29.2 °F 58% 29.75 in 1.2 mi NE 17.3 mph - N/A   Overcast
1:16 AM -18.4 °F -43.7 °F -29.2 °F 58% 29.75 in 1.0 mi NE 16.1 mph 21.9 mph N/A   Overcast
1:36 AM -18.4 °F -44.5 °F -29.2 °F 58% 29.75 in 0.8 mi NE 17.3 mph 23.0 mph N/A   Overcast
1:56 AM -18.4 °F -44.5 °F -29.2 °F 58% 29.75 in 1.0 mi NE 17.3 mph 23.0 mph N/A   Overcast
2:16 AM -18.4 °F -44.5 °F -29.2 °F 58% 29.75 in 1.0 mi NE 17.3 mph 21.9 mph N/A   Overcast
2:36 AM -18.4 °F -45.2 °F -29.2 °F 58% 29.76 in 1.0 mi NE 18.4 mph 23.0 mph N/A   Overcast
2:56 AM -18.4 °F -45.2 °F -29.2 °F 58% 29.75 in 1.0 mi NE 18.4 mph 23.0 mph N/A   Overcast
3:16 AM -18.4 °F -45.2 °F -29.2 °F 58% 29.75 in 1.2 mi NNE 18.4 mph 23.0 mph N/A   Overcast
3:36 AM -18.4 °F -45.2 °F -29.2 °F 58% 29.75 in 1.5 mi NNE 18.4 mph 24.2 mph N/A   Overcast
3:56 AM -18.4 °F -45.9 °F -29.2 °F 58% 29.74 in 1.5 mi NNE 19.6 mph 24.2 mph N/A   Overcast
4:16 AM -18.4 °F -45.9 °F -29.2 °F 58% 29.74 in 1.5 mi NNE 19.6 mph 25.3 mph N/A   Overcast
4:36 AM -18.4 °F -45.2 °F -29.2 °F 58% 29.74 in 1.0 mi NNE 18.4 mph 24.2 mph N/A   Overcast
4:56 AM -18.4 °F -43.7 °F -29.2 °F 58% 29.75 in 1.2 mi NE 16.1 mph 20.7 mph N/A   Overcast
5:16 AM -18.4 °F -45.2 °F -29.2 °F 58% 29.74 in 1.0 mi NE 18.4 mph 23.0 mph N/A   Overcast
5:36 AM -18.4 °F -45.9 °F -29.2 °F 58% 29.74 in 1.2 mi NE 19.6 mph 24.2 mph N/A   Overcast
5:56 AM -18.4 °F -45.2 °F -29.2 °F 58% 29.74 in 1.5 mi NE 18.4 mph 23.0 mph N/A   Overcast
6:16 AM -18.4 °F -45.2 °F -29.2 °F 58% 29.74 in 1.8 mi NE 18.4 mph - N/A   Overcast
6:36 AM -18.4 °F -45.9 °F -29.2 °F 58% 29.74 in 1.5 mi NE 19.6 mph 23.0 mph N/A   Overcast
6:56 AM -18.4 °F -45.2 °F -29.2 °F 58% 29.74 in 1.5 mi NE 18.4 mph 24.2 mph N/A   Overcast
7:16 AM -18.4 °F -45.9 °F -29.2 °F 58% 29.73 in 1.5 mi NE 19.6 mph - N/A   Overcast
7:36 AM -18.4 °F -45.2 °F -29.2 °F 58% 29.74 in 1.8 mi NE 18.4 mph 25.3 mph N/A   Overcast
7:56 AM -18.4 °F -46.5 °F -29.2 °F 58% 29.74 in 1.5 mi NE 20.7 mph 24.2 mph N/A   Overcast
8:16 AM -18.4 °F -46.5 °F -29.2 °F 58% 29.74 in 2.0 mi NE 20.7 mph - N/A   Overcast
8:36 AM -18.4 °F -44.5 °F -29.2 °F 58% 29.74 in 2.0 mi NE 17.3 mph - N/A   Overcast
8:56 AM -18.4 °F -46.5 °F -29.2 °F 58% 29.74 in 2.5 mi NE 20.7 mph 24.2 mph N/A   Overcast
9:16 AM -18.4 °F -46.5 °F -29.2 °F 58% 29.74 in 2.0 mi NE 20.7 mph 24.2 mph N/A   Overcast
9:36 AM -18.4 °F -45.2 °F -29.2 °F 58% 29.74 in 1.5 mi NE 18.4 mph - N/A   Overcast
9:56 AM -18.4 °F -45.9 °F -29.2 °F 58% 29.74 in 1.5 mi NE 19.6 mph - N/A   Overcast
10:16 AM -18.4 °F -45.9 °F -29.2 °F 58% 29.74 in 1.2 mi NE 19.6 mph 26.5 mph N/A   Overcast
10:36 AM -18.4 °F -44.5 °F -29.2 °F 58% 29.74 in 1.0 mi NE 17.3 mph 23.0 mph N/A   Overcast
10:56 AM -18.4 °F -45.2 °F -29.2 °F 58% 29.75 in 0.8 mi NE 18.4 mph 24.2 mph N/A   Overcast
11:16 AM -18.4 °F -43.7 °F -29.2 °F 58% 29.75 in 0.5 mi NE 16.1 mph 19.6 mph N/A   Overcast
11:36 AM -18.4 °F -42.9 °F -29.2 °F 58% 29.75 in 1.0 mi NE 15.0 mph 19.6 mph N/A   Overcast
11:56 AM -18.4 °F -44.5 °F -29.2 °F 58% 29.75 in 1.2 mi NE 17.3 mph - N/A   Overcast
12:16 PM -18.4 °F -43.7 °F -29.2 °F 58% 29.75 in 2.0 mi NE 16.1 mph - N/A   Overcast
12:36 PM -20.2 °F -46.0 °F -27.4 °F 69% 29.75 in 5.0 mi NNE 16.1 mph - N/A   Overcast
12:56 PM -20.2 °F -46.8 °F - N/A% 29.75 in 3.0 mi NE 17.3 mph - N/A   Overcast
1:16 PM -20.2 °F -45.2 °F -29.2 °F 63% 29.75 in 2.5 mi NNE 15.0 mph 21.9 mph N/A   Overcast
1:36 PM -20.2 °F -46.0 °F -29.2 °F 63% 29.75 in 2.0 mi NE 16.1 mph 23.0 mph N/A   Overcast
1:56 PM -20.2 °F -47.5 °F -29.2 °F 63% 29.75 in 5.0 mi NE 18.4 mph - N/A   Overcast
2:16 PM -18.4 °F -44.5 °F -29.2 °F 58% 29.75 in 5.0 mi NE 17.3 mph - N/A   Overcast
2:36 PM -20.2 °F -46.0 °F -29.2 °F 63% 29.75 in 4.0 mi NE 16.1 mph - N/A   Overcast
2:56 PM -20.2 °F -44.4 °F - N/A% 29.75 in 3.0 mi NE 13.8 mph - N/A   Overcast
3:16 PM -20.2 °F -46.8 °F - N/A% 29.74 in 2.0 mi NE 17.3 mph 23.0 mph N/A   Overcast
3:36 PM -22.0 °F -48.4 °F - N/A% 29.74 in 1.5 mi NE 16.1 mph - N/A   Overcast
3:56 PM -22.0 °F -49.1 °F - N/A% 29.73 in 2.0 mi NE 17.3 mph - N/A   Overcast
4:16 PM -22.0 °F -48.4 °F - N/A% 29.74 in 2.5 mi NE 16.1 mph 21.9 mph N/A   Overcast
4:36 PM -22.0 °F -50.6 °F - N/A% 29.73 in 3.0 mi NNE 19.6 mph - N/A   Overcast
4:56 PM -22.0 °F -49.9 °F - N/A% 29.73 in 2.5 mi NNE 18.4 mph - N/A   Overcast
5:16 PM -22.0 °F -48.4 °F - N/A% 29.73 in 3.0 mi NNE 16.1 mph - N/A   Overcast
5:36 PM -23.8 °F -51.5 °F - N/A% 29.72 in 4.0 mi NNE 17.3 mph - N/A   Overcast
5:56 PM -23.8 °F -50.7 °F - N/A% 29.72 in 3.0 mi NNE 16.1 mph 20.7 mph N/A   Overcast
6:16 PM -23.8 °F -51.5 °F - N/A% 29.72 in 2.5 mi NNE 17.3 mph 23.0 mph N/A   Overcast
6:36 PM -22.0 °F -49.1 °F - N/A% 29.72 in 3.0 mi NNE 17.3 mph - N/A   Overcast
6:56 PM -22.0 °F -50.6 °F - N/A% 29.72 in 3.0 mi NE 19.6 mph - N/A   Overcast
7:16 PM -22.0 °F -49.9 °F - N/A% 29.71 in 2.5 mi NE 18.4 mph - N/A   Overcast
7:36 PM -22.0 °F -49.9 °F - N/A% 29.71 in 3.0 mi NE 18.4 mph - N/A   Overcast
7:56 PM -23.8 °F -52.2 °F - N/A% 29.71 in 3.0 mi NE 18.4 mph - N/A   Overcast
8:16 PM -22.0 °F -49.1 °F - N/A% 29.71 in 6.0 mi NE 17.3 mph - N/A   Overcast
8:36 PM -23.8 °F -49.8 °F - N/A% 29.72 in 7.0 mi NE 15.0 mph - N/A   Overcast
8:56 PM -22.0 °F -49.9 °F - N/A% 29.71 in 9.0 mi NE 18.4 mph - N/A   Overcast
9:16 PM -22.0 °F -48.4 °F - N/A% 29.72 in 10.0 mi NE 16.1 mph 21.9 mph N/A   Overcast
9:36 PM -20.2 °F -46.0 °F - N/A% 29.72 in 9.0 mi NE 16.1 mph - N/A   Overcast
9:56 PM -22.0 °F -47.5 °F - N/A% 29.72 in 10.0 mi NE 15.0 mph 20.7 mph N/A   Overcast
10:16 PM -20.2 °F -46.0 °F - N/A% 29.72 in 10.0 mi NE 16.1 mph - N/A   Overcast
10:36 PM -20.2 °F -46.0 °F - N/A% 29.72 in 10.0 mi NE 16.1 mph - N/A   Overcast
10:56 PM -20.2 °F -46.8 °F - N/A% 29.71 in 10.0 mi NE 17.3 mph 23.0 mph N/A   Overcast
11:16 PM -22.0 °F -48.4 °F - N/A% 29.71 in 10.0 mi NE 16.1 mph - N/A   Overcast
11:36 PM -22.0 °F -49.1 °F - N/A% 29.70 in 9.0 mi NE 17.3 mph - N/A   Mostly Cloudy
11:56 PM -23.8 °F -50.7 °F - N/A% 29.70 in 8.0 mi NE 16.1 mph - N/A   Partly Cloudy